Perryton, TX

11:29 AM CST on February 25, 2017 (GMT -0600)
Perryton Ochiltree County

Weather History for KPYX - September, 2013

Change the Weather History Date:

Wednesday, September 4, 2013

  Actual Average Record
Temperature  
Mean Temperature 79 °F -  
Max Temperature 97 °F 89 °F 100 °F (1970)
Min Temperature 61 °F 59 °F 42 °F (1974)
Cooling Degree Days 14    
Growing Degree Days 29 (Base 50)    
Moisture  
Dew Point 50 °F    
Average Humidity 38    
Maximum Humidity 63    
Minimum Humidity 18    
Precipitation  
Precipitation 0.00 in - - ()
Sea Level Pressure  
Sea Level Pressure 30.14 in    
Wind  
Wind Speed 10 mph (SSE)    
Max Wind Speed 16 mph    
Max Gust Speed 20 mph    
Visibility 10 miles    
Events      
Averages and records for this station are not official NWS values.
T = Trace of Precipitation, MM = Missing Value Source: NWS Daily Summary

Daily Weather History Graph

Daily Weather History Graph

Search for Another Location

Airport or City:

Trip Planner

Search our weather history database for the weather conditions in past years. The results will help you decide how hot, cold, wet, or windy it might be!

Date:

Astronomy

Sep. 04, 2013 Rise Set
Actual Time 7:16 AM CDT 8:06 PM CDT
Civil Twilight 6:50 AM CDT 8:32 PM CDT
Nautical Twilight 6:19 AM CDT 9:03 PM CDT
Astronomical Twilight 5:47 AM CDT 9:35 PM CDT
Moon 6:30 AM CDT (9/4) 7:28 PM CDT (9/4)
Length of Visible Light 13h 41m
Length of Day
12h 49m
Waning Crescent, 1% of the Moon is Illuminated
Sep 4
Waning Crescent
Sep 5
New
Sep 12
First Quarter
Sep 19
Full
Sep 26
Last Quarter

Hourly Weather History & Observations

Time (CDT) Temp. Heat Index Dew Point Humidity Pressure Visibility Wind Dir Wind Speed Gust Speed Precip Events Conditions
12:15 AM 72.0 °F - 49.6 °F 45% 30.11 in 10.0 mi SSE 9.2 mph - N/A   Unknown
12:35 AM 72.7 °F - 49.6 °F 44% 30.11 in 10.0 mi SSE 9.2 mph - N/A   Unknown
12:55 AM 72.5 °F - 49.5 °F 44% 30.11 in 10.0 mi SSE 9.2 mph - N/A   Unknown
1:15 AM 71.6 °F - 49.5 °F 45% 30.11 in 10.0 mi SE 9.2 mph - N/A   Unknown
1:35 AM 70.7 °F - 49.5 °F 47% 30.11 in 10.0 mi SSE 9.2 mph - N/A   Unknown
1:55 AM 69.8 °F - 49.3 °F 48% 30.12 in 10.0 mi SSE 9.2 mph - N/A   Unknown
2:15 AM 69.6 °F - 49.5 °F 49% 30.12 in 10.0 mi SSE 9.2 mph - N/A   Unknown
2:35 AM 68.7 °F - 49.1 °F 50% 30.12 in 10.0 mi SSE 6.9 mph - N/A   Unknown
2:55 AM 68.2 °F - 49.3 °F 51% 30.13 in 10.0 mi SSE 9.2 mph - N/A   Unknown
3:15 AM 68.5 °F - 49.5 °F 50% 30.13 in 10.0 mi SSE 9.2 mph - N/A   Unknown
3:35 AM 69.1 °F - 49.8 °F 50% 30.14 in 10.0 mi South 9.2 mph - N/A   Unknown
3:55 AM 68.5 °F - 50.0 °F 52% 30.14 in 10.0 mi SSE 9.2 mph - N/A   Unknown
4:15 AM 67.8 °F - 50.0 °F 53% 30.14 in 10.0 mi South 8.1 mph - N/A   Unknown
4:35 AM 66.4 °F - 50.0 °F 56% 30.14 in 10.0 mi SSE 6.9 mph - N/A   Unknown
4:55 AM 64.6 °F - 49.6 °F 58% 30.14 in 10.0 mi SSE 6.9 mph - N/A   Unknown
5:15 AM 63.5 °F - 49.3 °F 60% 30.14 in 10.0 mi SSE 5.8 mph - N/A   Unknown
5:35 AM 63.0 °F - 49.1 °F 61% 30.14 in 10.0 mi SSE 5.8 mph - N/A   Unknown
5:55 AM 63.3 °F - 48.9 °F 59% 30.14 in 10.0 mi SSE 8.1 mph - N/A   Unknown
6:15 AM 63.1 °F - 48.7 °F 59% 30.14 in 10.0 mi SSE 8.1 mph - N/A   Unknown
6:35 AM 62.8 °F - 49.1 °F 61% 30.15 in 10.0 mi SSE 8.1 mph - N/A   Unknown
6:55 AM 62.2 °F - 49.1 °F 62% 30.16 in 10.0 mi SSE 5.8 mph - N/A   Unknown
7:15 AM 61.2 °F - 48.6 °F 63% 30.16 in 10.0 mi SSE 8.1 mph - N/A   Unknown
7:35 AM 61.7 °F - 49.1 °F 63% 30.17 in 10.0 mi SSE 8.1 mph - N/A   Unknown
7:55 AM 64.2 °F - 50.4 °F 61% 30.17 in 10.0 mi SSE 6.9 mph - N/A   Unknown
8:15 AM 67.1 °F - 51.6 °F 57% 30.17 in 10.0 mi South 6.9 mph - N/A   Unknown
8:35 AM 70.5 °F - 51.8 °F 51% 30.17 in 10.0 mi South 9.2 mph - N/A   Unknown
8:55 AM 73.0 °F - 51.8 °F 47% 30.18 in 10.0 mi South 12.7 mph - N/A   Unknown
9:15 AM 75.2 °F - 51.8 °F 44% 30.18 in 10.0 mi South 12.7 mph - N/A   Unknown
9:35 AM 77.4 °F - 50.9 °F 39% 30.17 in 10.0 mi South 15.0 mph - N/A   Unknown
9:55 AM 79.5 °F - 49.5 °F 35% 30.17 in 10.0 mi SSW 16.1 mph - N/A   Unknown
10:15 AM 81.1 °F - 48.9 °F 32% 30.17 in 10.0 mi South 12.7 mph - N/A   Unknown
10:35 AM 83.3 °F - 48.6 °F 30% 30.17 in 10.0 mi South 12.7 mph - N/A   Unknown
10:55 AM 84.9 °F - 48.9 °F 29% 30.17 in 10.0 mi South 16.1 mph 19.6 mph N/A   Unknown
11:15 AM 86.9 °F - 49.3 °F 27% 30.17 in 10.0 mi SSW 12.7 mph 17.3 mph N/A   Unknown
11:35 AM 87.8 °F - 50.0 °F 27% 30.17 in 10.0 mi SSW 15.0 mph - N/A   Unknown
11:55 AM 89.4 °F - 50.4 °F 26% 30.17 in 10.0 mi SSW 13.8 mph 19.6 mph N/A   Unknown
12:15 PM 90.1 °F - 50.4 °F 26% 30.17 in 10.0 mi South 11.5 mph - N/A   Unknown
12:35 PM 90.9 °F - 50.0 °F 25% 30.17 in 10.0 mi SW 10.4 mph 16.1 mph N/A   Unknown
12:55 PM 92.7 °F - 48.7 °F 22% 30.16 in 10.0 mi SSW 8.1 mph 17.3 mph N/A   Unknown
1:15 PM 93.9 °F - 48.2 °F 21% 30.15 in 10.0 mi SW 9.2 mph 16.1 mph N/A   Unknown
1:35 PM 94.8 °F - 47.7 °F 20% 30.15 in 10.0 mi SSW 9.2 mph 18.4 mph N/A   Unknown
1:55 PM 94.8 °F - 46.6 °F 19% 30.14 in 10.0 mi SSW 8.1 mph - N/A   Unknown
2:15 PM 95.9 °F - 46.2 °F 18% 30.14 in 10.0 mi SE 8.1 mph - N/A   Unknown
2:35 PM 96.3 °F - 47.3 °F 19% 30.13 in 10.0 mi South 9.2 mph - N/A   Unknown
2:55 PM 97.3 °F - 47.3 °F 18% 30.12 in 10.0 mi SE 11.5 mph - N/A   Unknown
3:15 PM 96.6 °F - 47.5 °F 19% 30.12 in 10.0 mi SE 8.1 mph 16.1 mph N/A   Unknown
3:35 PM 97.3 °F - 47.8 °F 19% 30.11 in 10.0 mi SSE 8.1 mph 17.3 mph N/A   Unknown
3:55 PM 97.7 °F - 50.5 °F 20% 30.10 in 10.0 mi ESE 11.5 mph - N/A   Unknown
4:15 PM 97.0 °F - 49.5 °F 20% 30.10 in 10.0 mi East 9.2 mph 17.3 mph N/A   Unknown
4:35 PM 97.0 °F - 48.2 °F 19% 30.10 in 10.0 mi SE 9.2 mph - N/A   Unknown
4:55 PM 96.8 °F - 49.8 °F 20% 30.10 in 10.0 mi SE 15.0 mph 18.4 mph N/A   Unknown
5:15 PM 95.9 °F - 50.0 °F 21% 30.10 in 10.0 mi ESE 11.5 mph 18.4 mph N/A   Unknown
5:35 PM 95.0 °F - 50.4 °F 22% 30.10 in 10.0 mi East 6.9 mph 18.4 mph N/A   Unknown
5:55 PM 95.2 °F - 50.5 °F 22% 30.10 in 10.0 mi ESE 11.5 mph 18.4 mph N/A   Unknown
6:15 PM 94.1 °F - 50.7 °F 23% 30.10 in 10.0 mi ESE 11.5 mph 17.3 mph N/A   Unknown
6:35 PM 93.7 °F - 51.1 °F 23% 30.10 in 10.0 mi ESE 11.5 mph - N/A   Unknown
6:55 PM 92.3 °F - 52.0 °F 25% 30.10 in 10.0 mi ESE 15.0 mph 19.6 mph N/A   Unknown
7:15 PM 90.9 °F - 52.2 °F 27% 30.10 in 10.0 mi ESE 13.8 mph - N/A   Unknown
7:35 PM 89.8 °F - 52.2 °F 28% 30.10 in 10.0 mi ESE 15.0 mph - N/A   Unknown
7:55 PM 87.6 °F 85.5 °F 53.1 °F 31% 30.10 in 10.0 mi ESE 11.5 mph - N/A   Unknown
8:15 PM 86.0 °F - 52.9 °F 32% 30.11 in 10.0 mi ESE 12.7 mph - N/A   Unknown
8:35 PM 84.2 °F - 52.9 °F 34% 30.11 in 10.0 mi ESE 11.5 mph - N/A   Unknown
8:55 PM 82.8 °F - 52.9 °F 36% 30.12 in 10.0 mi SE 12.7 mph - N/A   Unknown
9:15 PM 81.3 °F 80.6 °F 53.1 °F 37% 30.12 in 10.0 mi SE 10.4 mph - N/A   Unknown
9:35 PM 80.2 °F 80.0 °F 53.1 °F 39% 30.14 in 10.0 mi SE 10.4 mph - N/A   Unknown
9:55 PM 78.8 °F - 53.4 °F 41% 30.14 in 10.0 mi SE 9.2 mph - N/A   Unknown
10:15 PM 77.5 °F - 53.2 °F 43% 30.15 in 10.0 mi SE 9.2 mph - N/A   Unknown
10:35 PM 76.6 °F - 52.7 °F 43% 30.15 in 10.0 mi SE 9.2 mph - N/A   Unknown
10:55 PM 76.1 °F - 52.2 °F 43% 30.16 in 10.0 mi SE 9.2 mph - N/A   Unknown
11:15 PM 75.6 °F - 51.1 °F 42% 30.16 in 10.0 mi SE 9.2 mph - N/A   Unknown
11:35 PM 76.1 °F - 49.1 °F 39% 30.16 in 10.0 mi SE 10.4 mph - N/A   Unknown
11:55 PM 74.7 °F - 48.9 °F 40% 30.16 in 10.0 mi SSE 9.2 mph - N/A   Unknown